FENGYUN 1C DEB, 30253

Orbit data source: Space-Track

FENGYUN 1C DEB, 30253 is space debris in SSO originally from a launch on Mon, 10 May 1999 UTC launched from the Taiyaun Space Center, China (TSC). Fengyun 1C debris stems from the Chinese weather satellite Fengyun-1C, which was intentionally destroyed by a Chinese anti-satellite missile in 2007. This event dramatically increased the amount of space debris, with thousands of trackable fragments posing hazards to satellites and human spaceflight. The Fengyun 1C debris cloud has become a focal point in discussions about space sustainability and the need for international regulations to prevent the creation of new debris.

Loading next visibility...
Identifier
30253, 1999-025XN
Orbit
SSO
Country
Flag of CNCN / PRC
Related business
Manufacturer
Unknown
Mission
Spacecraft
Bus & Motor
Unknown
Mass
Unknown
Launch date (UTC)
1999-05-10 (27 years ago)
Launch vehicle
Unknown
Launch site
Taiyaun Space Center, China (TSC)
Object type
Payload
Rocket body
Debris
Shape & HBR
Unknown shape, 0.1 m
Radar Cross Section
Medium (>0.1 m² and <1 m²)

Expand to show TLE details & history
Last TLE update: 19 hours ago

TLE from 19 hours ago
0 FENGYUN 1C DEB
1 30253U 99025XN  26207.78822723  .00001486  00000-0  13621-2 0  9998
2 30253  98.7405 281.7214 0221599 157.4350 330.6689 13.73869915971178
Epoch: 2026-07-26T18:55Z
TLE epoch observation values (Epoch: 2026-07-26T18:55:02.832Z)
Latitude
52.39188°
Longitude
-115.07077°
Altitude
852.767 km
Speed
7.502 km/s
True Right ascension
07h 32m 41s
True Declination
52° 13' 40"
Sunlit
Object was in daylight at epoch
Visualization orbit readout
Latitude
Unknown
Longitude
Unknown
Altitude
Unknown
Speed
Unknown
Apparent Right ascension
Unknown
Apparent Declination
Unknown
Sunlit
N/A
Visualization observer readout
Local Sidereal Time
02:58:48
Azimuth
Unknown
Elevation
Unknown
Doppler factor
Unknown
Orbital elements
Apogee altitude
1,146.051 km
Perigee altitude
819.81 km
Semi-major axis
7,361.067 km
Eccentricity
0.02216
Inclination
98.7405°
RAAN
281.7214°
Arg. of periapsis
157.435°
True anomaly
329.39435°
Mean anomaly
330.6689°
Eccentric anomaly
330.03473°
Mean motion
3.43662 °/min
Orbital period
104.75 mins
BSTAR
0.0013621
Loading maneuver chart data...
Computing Atmospheric mass density...

Documentation

Showing up to 5 results
|